THOR ABLESTAR DEB, 245

Orbit data source: Space-Track

THOR ABLESTAR DEB, 245 is space debris in LEO originally from a launch on Thu, 29 Jun 1961 UTC launched from the Air Force Eastern Test Range (AFETR). Debris objects in space refer to the collection of defunct objects orbiting the Earth. Examples of debris include non-operational satellites, rocket bodies, and fragments generated from explosions, collisions, or faulty payload assembly.

Loading next visibility...
Identifier
245, 1961-015CA
Orbit
LEO
Country
Flag of USUS
Related business
Manufacturer
Unknown
Mission
Spacecraft
Bus & Motor
Unknown
Mass
Unknown
Launch date (UTC)
1961-06-29 (64 years ago)
Launch vehicle
Unknown
Launch site
Air Force Eastern Test Range (AFETR)
Object type
Payload
Rocket body
Debris
Shape & HBR
Unknown shape, 0.2 m
Radar Cross Section
Medium (>0.1 m² and <1 m²)

Expand to show TLE details & history
Last TLE update: 15 hours ago

TLE from 15 hours ago
0 THOR ABLESTAR DEB
1 00245U 61015CA  25341.32172394  .00002380  00000-0  11873-2 0  9995
2 00245  66.1048 315.4960 0056651 305.1042  54.4742 14.17858151300677
Epoch: 2025-12-07T07:43Z
TLE epoch observation values (Epoch: 2025-12-07T07:43:16.948Z)
Latitude
0.00006°
Longitude
123.33863°
Altitude
811.069 km
Speed
7.46 km/s
True Right ascension
21h 01m 59s
True Declination
0° 00' 00"
Sunlit
Object was in daylight at epoch
Visualization orbit readout
Latitude
Unknown
Longitude
Unknown
Altitude
Unknown
Speed
Unknown
Apparent Right ascension
Unknown
Apparent Declination
Unknown
Sunlit
N/A
Visualization observer readout
Local Sidereal Time
20:51:58
Azimuth
Unknown
Elevation
Unknown
Doppler factor
Unknown
Orbital elements
Apogee altitude
871.9 km
Perigee altitude
790.219 km
Semi-major axis
7,209.196 km
Eccentricity
0.00567
Inclination
66.1048°
RAAN
315.496°
Arg. of periapsis
305.1042°
True anomaly
55.00471°
Mean anomaly
54.4742°
Eccentric anomaly
54.73924°
Mean motion
3.54579 °/min
Orbital period
101.53 mins
BSTAR
0.0011873
Loading maneuver chart data...
Computing Atmospheric mass density...

Documentation

Showing up to 5 results
|